Temp
-11 -11 -11 -10 -11 -10 -10 -10 -10 -10 -11 -11 -11 -11 -11 -10 -10 -10 -10 -10 -10 -10 -10 -10 -10 -10 -10 -9 -9 -9 -9 -9 -9 -9 -9 -9 -9 -9 -9 -8 -8 -8 -8 -8 -9 -9 -9 -8 -8
-11 -11 -11 -11 -11 -10 -10 -10 -10 -11 -11 -11 -11 -11 -11 -10 -11 -11 -11 -11 -11 -11 -11 -11 -10 -10 -11 -10 -10 -10 -10 -10 -9 -9 -9 -9 -9 -9 -9 -9 -9 -8 -8 -8 -8 -9 -9 -8 -8
-11 -11 -11 -11 -10 -10 -10 -10 -10 -10 -11 -11 -11 -11 -11 -11 -11 -11 -11 -11 -10 -10 -11 -11 -11 -11 -11 -11 -10 -10 -10 -10 -10 -10 -10 -9 -9 -9 -9 -9 -9 -9 -9 -9 -9 -9 -9 -9 -9
-11 -11 -11 -11 -10 -10 -10 -10 -10 -10 -11 -11 -11 -11 -11 -11 -12 -11 -11 -11 -11 -11 -11 -11 -11 -11 -11 -10 -10 -11 -10 -10 -10 -10 -10 -10 -10 -9 -9 -9 -9 -9 -9 -10 -10 -9 -9 -9 -9
-11 -11 -11 -11 -11 -10 -11 -11 -11 -11 -11 -11 -11 -11 -11 -11 -12 -12 -11 -11 -11 -11 -11 -11 -11 -11 -11 -11 -11 -11 -11 -11 -11 -11 -10 -11 -11 -11 -10 -10 -9 -9 -10 -9 -10 -10 -10 -10 -9
-11 -11 -11 -11 -11 -11 -11 -11 -11 -11 -11 -11 -11 -11 -11 -12 -12 -12 -12 -12 -12 -12 -12 -12 -11 -11 -11 -11 -11 -11 -11 -11 -11 -11 -11 -11 -11 -11 -11 -11 -11 -10 -10 -10 -10 -10 -10 -10 -10
-11 -11 -11 -11 -11 -11 -11 -11 -12 -11 -11 -11 -11 -11 -12 -12 -12 -12 -12 -12 -12 -11 -11 -11 -11 -12 -12 -11 -12 -12 -11 -12 -12 -12 -11 -11 -12 -11 -11 -11 -11 -11 -11 -10 -10 -11 -11 -10 -10
-11 -11 -11 -11 -11 -11 -11 -11 -11 -12 -12 -12 -12 -11 -11 -12 -12 -12 -12 -12 -12 -12 -11 -12 -12 -12 -12 -12 -12 -12 -12 -12 -11 -11 -11 -12 -12 -12 -12 -12 -11 -11 -11 -11 -11 -11 -11 -11 -11
-11 -11 -11 -11 -11 -11 -11 -11 -11 -11 -11 -12 -12 -11 -12 -12 -12 -12 -12 -12 -12 -12 -12 -12 -12 -12 -12 -12 -12 -12 -12 -12 -12 -12 -12 -11 -11 -12 -12 -12 -11 -11 -11 -11 -12 -11 -11 -11 -11
-11 -12 -11 -12 -11 -11 -11 -11 -11 -11 -11 -11 -11 -12 -12 -12 -12 -12 -12 -12 -12 -12 -12 -12 -11 -11 -11 -11 -11 -11 -12 -12 -12 -12 -12 -12 -12 -11 -11 -12 -12 -12 -12 -11 -11 -12 -12 -12 -11
-12 -12 -11 -12 -12 -12 -12 -11 -11 -11 -11 -11 -12 -12 -12 -12 -12 -12 -12 -12 -12 -12 -12 -12 -12 -12 -12 -12 -12 -12 -12 -12 -12 -12 -12 -12 -12 -12 -12 -12 -12 -12 -12 -12 -11 -11 -12 -12 -12
-12 -12 -12 -12 -12 -12 -12 -12 -12 -12 -11 -12 -12 -12 -12 -12 -12 -12 -12 -12 -12 -12 -12 -12 -12 -12 -12 -12 -12 -12 -12 -12 -12 -12 -12 -12 -12 -12 -12 -12 -12 -11 -12 -12 -13 -12 -12 -12 -12
-12 -12 -12 -12 -12 -12 -12 -12 -12 -12 -12 -12 -12 -12 -12 -12 -12 -12 -12 -12 -12 -12 -12 -12 -12 -12 -12 -12 -12 -12 -12 -12 -12 -12 -12 -12 -12 -12 -12 -11 -12 -12 -12 -12 -12 -13 -12 -12 -11
-12 -12 -12 -12 -12 -12 -12 -12 -12 -12 -12 -12 -12 -12 -12 -12 -12 -12 -12 -12 -12 -12 -12 -12 -12 -12 -12 -12 -12 -12 -12 -12 -12 -13 -13 -13 -13 -13 -12 -12 -12 -12 -12 -12 -12 -12 -14 -14 -13
-13 -12 -12 -12 -12 -12 -12 -12 -12 -12 -12 -12 -12 -12 -12 -12 -12 -12 -12 -12 -12 -12 -12 -12 -12 -12 -12 -12 -12 -12 -12 -13 -14 -14 -14 -14 -14 -14 -14 -15 -15 -14 -13 -13 -13 -13 -13 -13 -14
-13 -13 -12 -13 -12 -12 -12 -12 -13 -12 -12 -12 -12 -12 -12 -12 -12 -12 -12 -12 -12 -12 -12 -13 -13 -12 -12 -12 -13 -14 -14 -14 -14 -14 -14 -14 -14 -14 -14 -15 -15 -15 -15 -14 -14 -14 -13 -13 -13
-13 -13 -13 -13 -12 -12 -12 -13 -13 -12 -13 -13 -13 -13 -13 -13 -13 -13 -13 -13 -13 -13 -13 -13 -13 -12 -13 -14 -14 -15 -15 -15 -14 -15 -15 -15 -15 -15 -15 -15 -15 -15 -15 -15 -15 -15 -15 -14 -14
-13 -13 -13 -13 -13 -13 -12 -13 -13 -13 -13 -13 -13 -13 -13 -13 -13 -13 -13 -13 -13 -13 -13 -13 -13 -13 -14 -14 -14 -14 -14 -14 -14 -15 -15 -15 -15 -15 -15 -15 -15 -15 -15 -15 -15 -16 -16 -15 -15
-14 -13 -13 -13 -13 -13 -13 -13 -13 -13 -13 -13 -13 -13 -13 -13 -13 -13 -13 -13 -13 -13 -13 -13 -13 -14 -14 -15 -15 -15 -15 -15 -15 -15 -15 -15 -15 -15 -15 -15 -15 -15 -15 -15 -15 -15 -15 -16 -16
-14 -14 -14 -13 -13 -13 -13 -13 -13 -13 -13 -13 -13 -13 -13 -13 -13 -13 -13 -13 -13 -13 -13 -13 -14 -14 -15 -15 -15 -15 -15 -15 -15 -15 -15 -15 -15 -16 -16 -16 -16 -16 -16 -16 -15 -15 -14 -15 -16
-15 -14 -14 -14 -14 -14 -13 -13 -14 -14 -14 -13 -13 -13 -13 -13 -13 -13 -14 -13 -13 -13 -13 -14 -15 -15 -15 -15 -16 -16 -16 -16 -16 -16 -16 -16 -16 -16 -17 -17 -16 -16 -16 -16 -16 -15 -15 -15 -15
-15 -15 -14 -14 -14 -14 -14 -13 -14 -14 -14 -14 -13 -13 -13 -13 -13 -14 -14 -13 -13 -14 -14 -15 -15 -15 -15 -15 -15 -16 -16 -16 -16 -16 -16 -17 -17 -17 -17 -17 -17 -17 -16 -16 -16 -16 -16 -16 -15
-15 -15 -15 -15 -14 -14 -14 -14 -14 -14 -14 -14 -14 -14 -14 -14 -14 -14 -14 -14 -14 -14 -14 -15 -15 -15 -15 -15 -16 -16 -16 -16 -16 -17 -17 -18 -18 -18 -17 -18 -18 -17 -17 -17 -17 -17 -17 -17 -16
-16 -15 -15 -15 -15 -14 -15 -15 -14 -14 -14 -14 -14 -14 -14 -14 -14 -14 -14 -14 -14 -15 -15 -15 -15 -15 -16 -16 -16 -16 -16 -17 -17 -18 -18 -18 -18 -18 -18 -18 -18 -18 -18 -18 -18 -17 -17 -17 -17
-16 -16 -16 -15 -15 -14 -15 -15 -15 -15 -14 -14 -14 -14 -14 -14 -14 -14 -14 -14 -15 -15 -15 -15 -15 -15 -16 -16 -16 -17 -17 -17 -18 -18 -18 -18 -18 -19 -18 -18 -18 -18 -18 -18 -17 -17 -17 -17 -17
-16 -16 -16 -15 -15 -15 -15 -15 -15 -15 -15 -15 -15 -14 -14 -14 -14 -14 -14 -15 -15 -15 -15 -15 -15 -15 -16 -16 -17 -17 -18 -19 -19 -19 -18 -18 -19 -19 -19 -18 -18 -18 -18 -18 -17 -17 -17 -17 -17
-16 -16 -16 -16 -16 -16 -15 -15 -15 -15 -15 -15 -15 -15 -15 -15 -15 -15 -15 -15 -15 -15 -15 -15 -15 -15 -16 -17 -18 -18 -19 -19 -19 -19 -18 -18 -19 -18 -18 -18 -18 -18 -18 -18 -18 -18 -18 -19 -19
-16 -16 -17 -16 -16 -16 -15 -15 -15 -16 -16 -16 -15 -15 -15 -15 -15 -15 -15 -15 -15 -15 -15 -15 -15 -15 -16 -17 -18 -19 -20 -19 -19 -19 -18 -19 -19 -18 -18 -18 -18 -18 -18 -19 -20 -20 -20 -19 -19
-16 -16 -17 -17 -16 -16 -16 -15 -16 -17 -16 -16 -15 -15 -15 -15 -15 -15 -15 -15 -15 -15 -15 -15 -15 -16 -16 -17 -18 -20 -20 -19 -19 -19 -19 -19 -19 -19 -18 -18 -18 -19 -20 -20 -20 -20 -20 -20 -20
-17 -16 -17 -16 -16 -16 -16 -16 -16 -17 -16 -16 -16 -15 -16 -15 -15 -15 -15 -15 -15 -15 -15 -15 -15 -16 -16 -18 -19 -21 -20 -19 -19 -19 -19 -19 -19 -19 -18 -18 -18 -19 -20 -20 -21 -21 -21 -21 -21
Height
5773 5773 5773 5771 5773 5770 5769 5768 5769 5769 5773 5773 5776 5778 5781 5784 5785 5787 5787 5788 5789 5790 5792 5793 5795 5795 5797 5798 5799 5799 5800 5800 5802 5803 5805 5806 5807 5807 5808 5809 5811 5813 5813 5814 5815 5817 5817 5818 5819
5769 5769 5769 5768 5768 5765 5765 5763 5763 5764 5765 5770 5772 5774 5776 5778 5779 5780 5783 5784 5785 5786 5788 5789 5790 5791 5793 5794 5795 5795 5796 5797 5798 5799 5801 5802 5803 5804 5805 5805 5806 5808 5809 5809 5810 5811 5812 5813 5815
5765 5765 5766 5764 5763 5761 5758 5757 5759 5759 5763 5765 5767 5769 5771 5773 5775 5777 5777 5779 5781 5782 5783 5784 5785 5787 5789 5790 5791 5792 5793 5793 5794 5795 5796 5798 5799 5800 5800 5801 5802 5802 5804 5805 5805 5807 5807 5809 5809
5762 5762 5762 5761 5760 5758 5754 5753 5755 5759 5760 5762 5764 5765 5767 5769 5770 5772 5773 5776 5776 5777 5778 5779 5780 5781 5783 5784 5785 5787 5789 5789 5790 5790 5790 5791 5793 5794 5795 5796 5796 5797 5798 5799 5799 5800 5801 5803 5804
5758 5759 5759 5758 5757 5756 5753 5752 5754 5756 5757 5760 5761 5761 5763 5764 5766 5768 5769 5770 5771 5772 5773 5773 5774 5776 5777 5779 5780 5782 5783 5784 5785 5786 5786 5786 5787 5787 5789 5790 5790 5791 5793 5793 5794 5794 5796 5797 5797
5755 5756 5757 5756 5755 5754 5752 5751 5752 5753 5755 5757 5758 5760 5760 5760 5762 5763 5764 5765 5767 5768 5769 5770 5770 5770 5772 5773 5775 5776 5778 5779 5780 5781 5782 5781 5781 5781 5782 5783 5783 5785 5785 5786 5787 5788 5789 5790 5790
5752 5752 5754 5754 5754 5753 5751 5749 5750 5752 5753 5754 5755 5757 5758 5759 5760 5761 5762 5763 5764 5766 5766 5767 5768 5768 5768 5768 5770 5771 5772 5773 5773 5774 5775 5776 5775 5774 5774 5775 5776 5777 5778 5779 5780 5780 5782 5783 5784
5748 5750 5751 5752 5752 5751 5750 5749 5750 5751 5753 5754 5755 5755 5757 5758 5759 5760 5761 5762 5763 5763 5764 5764 5765 5765 5765 5765 5766 5767 5767 5767 5767 5767 5767 5767 5768 5767 5766 5766 5768 5769 5770 5770 5771 5772 5774 5775 5775
5744 5747 5748 5749 5749 5750 5749 5749 5750 5750 5751 5752 5753 5754 5755 5756 5757 5758 5758 5759 5760 5761 5761 5762 5761 5761 5761 5761 5762 5762 5762 5762 5762 5762 5761 5761 5760 5760 5759 5759 5759 5759 5760 5760 5761 5763 5765 5766 5765
5741 5743 5745 5746 5747 5748 5747 5748 5748 5750 5750 5751 5752 5752 5752 5753 5755 5756 5756 5757 5757 5757 5757 5757 5757 5757 5757 5757 5757 5756 5756 5756 5755 5755 5754 5753 5753 5752 5750 5749 5750 5751 5750 5751 5752 5753 5755 5755 5756
5738 5740 5741 5743 5744 5745 5745 5746 5747 5748 5749 5750 5751 5751 5751 5752 5752 5752 5753 5753 5754 5754 5754 5754 5753 5753 5753 5752 5751 5749 5748 5748 5747 5745 5744 5744 5742 5741 5741 5740 5740 5740 5738 5737 5740 5742 5744 5745 5746
5733 5735 5737 5739 5740 5742 5743 5744 5744 5745 5746 5747 5748 5749 5749 5749 5749 5749 5749 5750 5750 5750 5749 5749 5748 5748 5747 5746 5744 5742 5740 5739 5737 5735 5733 5732 5731 5729 5729 5728 5728 5729 5728 5730 5730 5731 5732 5735 5737
5729 5731 5733 5735 5736 5738 5739 5740 5741 5741 5743 5743 5744 5745 5745 5745 5745 5745 5745 5745 5745 5745 5744 5743 5742 5741 5739 5738 5735 5732 5730 5727 5724 5722 5720 5718 5717 5716 5716 5715 5714 5713 5714 5716 5719 5718 5719 5723 5724
5725 5727 5728 5730 5732 5733 5735 5736 5736 5736 5738 5739 5739 5740 5741 5741 5741 5741 5741 5740 5740 5739 5738 5737 5736 5733 5731 5727 5724 5720 5717 5713 5709 5707 5704 5703 5702 5701 5700 5701 5700 5699 5698 5701 5703 5706 5708 5709 5712
5720 5722 5724 5726 5727 5729 5729 5731 5732 5732 5732 5733 5734 5735 5735 5735 5735 5735 5735 5735 5734 5733 5732 5730 5728 5725 5721 5717 5713 5709 5704 5701 5698 5696 5693 5691 5690 5689 5687 5686 5686 5686 5684 5683 5686 5691 5694 5698 5699
5715 5717 5719 5721 5722 5724 5725 5727 5726 5726 5727 5728 5729 5729 5729 5730 5730 5730 5730 5729 5727 5726 5725 5723 5720 5716 5711 5707 5702 5698 5695 5693 5691 5689 5686 5684 5681 5679 5677 5676 5674 5672 5672 5670 5669 5672 5676 5680 5684
5709 5712 5713 5716 5716 5718 5719 5721 5722 5721 5722 5723 5723 5723 5724 5724 5724 5724 5723 5722 5721 5720 5718 5714 5711 5706 5701 5697 5694 5692 5689 5686 5683 5680 5677 5674 5671 5668 5665 5663 5661 5659 5659 5659 5656 5656 5658 5662 5666
5703 5705 5707 5709 5712 5712 5713 5715 5715 5716 5716 5717 5716 5717 5718 5718 5718 5717 5716 5715 5714 5712 5710 5706 5702 5697 5692 5689 5686 5684 5681 5678 5674 5670 5666 5662 5659 5656 5653 5650 5647 5645 5644 5644 5643 5643 5640 5644 5648
5697 5699 5701 5702 5704 5705 5707 5709 5707 5708 5711 5710 5709 5710 5712 5711 5711 5711 5710 5709 5707 5704 5701 5697 5693 5687 5683 5680 5678 5674 5671 5667 5662 5658 5654 5650 5645 5642 5639 5637 5633 5630 5628 5626 5625 5625 5627 5626 5627
5690 5692 5694 5696 5697 5698 5700 5702 5701 5701 5703 5704 5703 5704 5704 5704 5704 5704 5703 5702 5699 5697 5693 5688 5683 5678 5674 5671 5668 5664 5660 5656 5651 5646 5640 5635 5630 5625 5622 5619 5616 5613 5611 5609 5608 5606 5606 5609 5608
5683 5685 5687 5689 5690 5691 5692 5694 5695 5695 5695 5696 5697 5697 5698 5697 5697 5697 5697 5695 5692 5688 5684 5678 5674 5670 5666 5662 5657 5653 5648 5643 5637 5632 5626 5620 5614 5609 5603 5600 5598 5596 5593 5592 5589 5588 5587 5588 5592
5675 5679 5680 5682 5682 5683 5685 5684 5689 5689 5688 5689 5689 5690 5691 5691 5691 5691 5690 5687 5683 5679 5675 5671 5667 5663 5658 5652 5647 5641 5636 5630 5622 5615 5608 5601 5596 5592 5587 5583 5580 5579 5576 5575 5573 5570 5569 5569 5573
5669 5671 5673 5674 5674 5675 5678 5676 5683 5682 5682 5682 5682 5682 5683 5683 5683 5683 5682 5679 5675 5672 5667 5663 5659 5654 5648 5642 5635 5629 5622 5614 5606 5598 5591 5584 5579 5576 5572 5567 5564 5561 5558 5557 5555 5553 5553 5553 5554
5662 5664 5666 5666 5667 5666 5671 5671 5675 5675 5676 5675 5675 5676 5676 5676 5676 5676 5674 5671 5668 5664 5660 5656 5650 5644 5637 5631 5623 5615 5607 5598 5590 5582 5575 5570 5565 5560 5556 5553 5549 5545 5542 5540 5538 5537 5535 5534 5535
5654 5657 5658 5659 5659 5659 5664 5663 5667 5668 5668 5669 5669 5669 5669 5669 5669 5669 5667 5665 5661 5657 5652 5648 5642 5635 5627 5619 5610 5601 5592 5583 5575 5568 5563 5557 5552 5548 5543 5537 5534 5530 5527 5524 5520 5518 5516 5514 5513
5645 5648 5650 5650 5651 5653 5655 5655 5661 5661 5661 5661 5662 5662 5662 5662 5662 5661 5659 5657 5654 5650 5645 5640 5633 5625 5616 5607 5597 5587 5578 5570 5563 5556 5550 5545 5540 5535 5529 5525 5520 5514 5509 5504 5499 5496 5494 5490 5489
5637 5639 5644 5643 5643 5644 5646 5650 5653 5654 5655 5654 5655 5655 5656 5655 5655 5654 5652 5649 5646 5641 5636 5630 5623 5614 5605 5595 5585 5575 5565 5557 5550 5543 5537 5532 5528 5522 5517 5512 5506 5498 5491 5483 5477 5473 5469 5465 5464
5625 5632 5633 5633 5635 5636 5637 5642 5645 5647 5647 5646 5647 5649 5649 5647 5647 5646 5644 5641 5638 5633 5628 5621 5613 5603 5593 5582 5572 5562 5553 5545 5539 5533 5527 5522 5515 5510 5505 5499 5491 5481 5472 5464 5458 5454 5449 5445 5441
5616 5619 5623 5627 5627 5628 5631 5634 5639 5640 5639 5638 5639 5641 5641 5640 5640 5639 5636 5634 5630 5626 5620 5613 5603 5592 5581 5569 5559 5549 5541 5535 5529 5524 5518 5512 5506 5499 5493 5485 5474 5464 5457 5449 5443 5436 5428 5423 5418
5603 5608 5612 5614 5619 5622 5624 5626 5629 5633 5632 5630 5630 5633 5634 5633 5632 5631 5629 5626 5623 5618 5612 5604 5593 5582 5570 5558 5548 5540 5533 5527 5522 5515 5510 5505 5498 5489 5481 5471 5461 5452 5444 5435 5427 5417 5408 5401 5395
Wind_Speed
21 20 19 19 20 19 19 24 28 31 31 32 31 30 30 26 26 28 26 26 25 26 25 24 23 21 22 22 21 22 21 21 22 23 24 24 25 26 27 26 27 27 26 25 25 24 25 24 24
21 19 18 17 18 21 20 22 26 28 32 30 31 29 28 27 26 28 25 25 25 26 27 26 28 27 26 25 24 23 23 22 22 24 25 27 28 28 29 30 30 30 30 29 29 28 29 28 27
21 18 18 17 17 19 22 20 26 30 27 29 29 28 26 26 26 26 26 26 27 28 28 29 29 29 31 31 28 25 25 24 24 24 25 27 29 31 31 32 33 33 33 33 33 33 33 31 30
18 17 16 17 15 14 17 19 26 21 21 22 23 25 24 25 26 26 26 25 26 26 28 30 30 31 32 32 33 33 34 33 30 29 29 29 30 32 33 34 35 36 37 37 37 37 37 36 35
17 16 15 15 12 11 9 13 19 19 20 20 22 23 24 24 25 27 27 27 28 28 28 30 31 31 32 33 35 34 34 35 34 35 34 33 33 33 35 36 38 38 39 40 41 40 39 39 38
18 17 15 13 11 9 8 11 17 20 21 22 24 21 20 22 23 23 23 23 22 21 23 26 26 28 30 32 32 34 34 34 33 34 35 37 37 36 37 38 39 40 41 41 42 43 43 43 41
18 17 14 12 9 5 2 4 12 14 14 14 14 16 15 15 15 14 13 13 12 11 12 17 21 21 22 23 24 25 28 31 31 32 34 35 38 41 42 40 41 42 42 43 44 44 45 45 44
21 18 15 12 9 6 3 5 7 9 12 15 13 13 13 15 13 12 11 10 10 10 10 9 10 12 14 16 19 21 22 25 30 31 32 34 36 39 44 44 44 43 45 45 45 46 44 46 46
23 18 16 13 11 9 7 7 8 9 10 12 14 13 13 14 15 14 13 12 12 12 11 12 12 14 16 19 21 23 25 26 28 30 32 34 38 41 43 46 46 50 49 48 48 48 49 49 50
23 20 18 15 13 12 10 10 11 11 11 12 13 14 14 15 16 15 14 13 13 12 13 16 18 20 23 25 27 29 31 33 35 36 38 40 41 42 43 48 50 52 49 53 54 51 52 54 55
23 22 19 17 15 15 13 13 13 13 14 14 15 16 17 17 18 17 16 15 15 16 18 22 23 25 28 31 34 37 40 42 45 47 48 48 48 48 49 53 51 53 54 49 46 57 52 54 53
25 24 21 20 19 18 17 17 16 17 17 17 17 17 18 18 18 19 19 19 20 21 23 24 26 30 34 38 42 44 47 49 50 54 55 56 58 57 57 57 59 58 57 58 55 49 48 51 47
26 25 23 23 21 20 20 20 19 21 20 21 20 20 20 20 20 21 22 22 23 24 26 29 32 36 40 44 48 49 53 55 58 61 62 64 64 64 65 65 64 64 65 62 61 61 52 43 44
27 27 25 24 23 21 21 21 20 24 22 22 22 22 22 22 23 23 24 25 27 28 31 34 37 42 47 50 53 57 60 62 62 61 60 60 64 67 67 69 68 68 70 70 68 62 64 67 53
28 27 26 24 24 22 22 21 21 23 24 24 24 24 25 26 26 26 26 28 30 31 33 37 41 46 49 52 54 54 51 46 39 36 37 41 46 50 54 59 60 63 69 70 72 71 67 65 64
29 28 27 25 25 24 23 22 23 25 25 26 27 26 27 27 27 28 29 30 31 32 35 39 43 47 51 51 46 39 34 33 34 36 38 41 45 47 51 53 59 59 61 66 66 67 74 71 67
30 28 28 28 27 26 26 24 25 27 28 27 28 30 29 29 29 30 30 30 31 33 37 41 46 48 48 43 37 37 38 40 41 38 43 44 45 48 50 52 56 56 58 61 63 65 65 69 73
30 30 30 31 29 29 28 26 29 29 29 30 31 32 30 29 30 31 30 29 30 34 39 43 45 45 42 41 42 42 45 44 45 45 47 51 53 56 56 56 54 58 60 58 59 63 68 67 66
32 32 32 32 31 31 30 28 30 32 29 31 32 31 30 29 31 31 28 27 31 35 39 42 42 42 42 42 46 49 50 49 49 50 51 54 59 62 63 62 59 57 55 61 63 63 68 70 69
34 34 33 32 32 33 31 28 31 32 30 30 30 29 30 30 32 29 26 28 31 35 37 38 38 40 41 41 43 44 46 50 53 56 59 62 63 65 65 64 63 61 59 59 61 61 62 69 71
35 35 34 33 33 33 33 32 31 31 30 30 28 28 28 30 31 27 27 30 31 33 33 33 35 36 38 41 45 47 49 51 53 56 59 62 65 65 63 63 65 65 63 61 61 61 59 61 70
37 34 33 33 34 36 33 35 28 28 30 28 28 27 28 30 29 27 28 29 27 29 30 33 37 41 44 47 51 52 53 55 60 63 63 63 61 60 60 59 60 62 62 62 62 61 61 61 63
35 34 34 34 34 35 31 35 26 27 28 27 27 27 29 29 28 27 27 25 24 26 28 31 35 40 44 49 52 54 58 62 62 61 59 54 53 54 54 54 56 58 59 59 58 58 59 62 66
35 34 33 34 33 37 30 30 27 27 29 29 28 28 29 28 28 28 26 23 23 25 27 32 38 44 47 50 54 59 60 60 60 56 51 49 48 49 49 53 53 50 52 54 56 58 61 62 65
35 33 34 36 36 37 30 32 28 27 29 29 28 27 27 28 29 29 26 24 23 25 29 34 41 46 50 54 58 59 60 59 56 49 47 46 46 46 50 49 49 52 54 58 62 64 63 64 67
35 35 35 37 37 36 32 34 26 26 29 29 28 28 28 29 28 27 24 23 24 28 33 37 43 50 55 58 60 62 61 57 50 45 45 45 43 47 43 45 50 51 55 61 64 67 68 68 70
48 42 37 40 39 38 36 31 26 27 28 29 28 28 28 30 27 25 24 25 26 30 35 39 46 53 58 59 61 63 62 54 45 44 45 41 42 38 40 46 53 57 61 65 69 69 67 66 67
49 42 39 40 40 38 38 31 27 25 28 30 32 31 29 31 30 28 27 29 30 33 36 42 49 57 60 62 63 60 56 45 41 42 42 40 37 40 44 50 55 60 57 55 54 56 59 64 68
52 48 43 40 41 39 37 32 27 26 33 35 35 31 28 31 30 29 29 31 32 34 38 44 52 58 62 62 58 52 44 38 39 39 38 36 40 46 49 51 51 48 47 48 50 53 55 58 60
42 44 42 43 41 38 38 35 30 28 32 35 33 28 29 30 30 31 32 32 32 33 38 46 53 60 63 57 50 44 35 37 37 36 33 36 42 43 43 45 39 40 38 43 47 50 51 53 57
Wind_Direction
249 260 265 269 272 270 271 256 240 238 233 229 232 231 234 239 240 240 239 238 239 242 241 232 227 222 225 231 239 243 244 243 242 237 238 237 237 236 235 235 242 246 245 245 245 244 242 243 248
250 261 266 272 278 280 270 257 239 236 234 231 229 231 233 235 237 239 242 240 242 243 242 238 235 235 236 236 239 241 244 246 246 245 244 242 241 240 243 241 237 241 243 245 247 244 241 243 244
249 258 266 274 282 287 272 247 229 235 229 229 230 230 234 238 241 242 242 241 242 244 245 245 243 242 245 246 238 235 241 244 247 249 248 247 248 247 242 243 245 242 240 240 242 245 245 242 241
248 254 265 274 284 290 271 242 230 230 230 228 228 230 233 236 240 243 246 248 246 245 248 249 250 249 248 248 250 249 247 248 250 250 250 248 245 247 249 249 246 244 244 242 241 241 241 243 241
244 248 259 269 268 287 276 237 232 227 226 224 229 232 236 238 241 243 244 245 246 248 250 254 255 253 251 251 252 253 255 255 255 254 252 253 253 249 246 247 249 248 247 245 245 243 244 243 242
237 243 251 257 252 272 267 233 219 222 223 227 234 239 239 240 244 241 238 241 243 249 254 256 257 261 258 254 254 254 256 258 258 258 256 255 255 255 251 248 247 249 249 248 247 245 244 244 244
231 235 241 241 239 245 241 201 216 220 220 208 205 216 223 222 221 229 230 228 231 247 268 266 263 267 267 264 263 258 257 260 260 263 264 262 259 261 258 254 250 245 247 249 250 248 246 244 246
226 226 228 228 224 215 189 158 167 188 201 214 218 208 208 210 215 220 227 233 248 262 272 280 277 279 278 276 278 275 270 266 265 264 263 263 263 262 267 266 259 255 249 246 247 249 248 249 245
222 221 221 224 226 219 205 202 199 193 195 199 210 216 211 218 226 232 241 251 259 265 277 283 287 286 286 287 288 288 288 283 276 274 272 271 270 265 262 262 263 266 257 252 246 247 247 247 246
217 216 217 220 225 230 226 221 222 222 221 221 226 233 237 240 246 253 258 261 269 276 280 280 281 285 292 294 293 292 291 290 288 287 284 283 279 276 273 271 265 259 260 259 251 246 247 247 248
213 215 218 224 229 235 236 238 236 235 234 237 244 247 250 254 260 261 260 260 261 265 273 279 285 292 296 295 294 293 291 288 288 287 287 284 283 282 279 275 273 271 266 263 259 250 248 249 249
212 218 221 229 233 238 240 243 246 248 245 250 251 255 256 255 253 253 256 263 266 271 281 288 290 292 293 292 292 289 287 285 284 282 281 280 278 277 278 278 275 271 268 270 268 254 254 247 249
215 222 225 230 235 240 243 247 250 256 256 258 256 254 252 253 253 254 258 263 268 275 283 287 291 294 296 296 294 291 291 288 285 282 280 279 277 275 272 274 275 273 268 265 263 263 255 249 249
221 227 230 233 237 240 244 249 255 259 259 255 256 255 255 257 255 257 263 268 275 280 286 291 295 298 299 298 297 296 293 288 284 281 278 276 275 274 273 270 271 271 270 265 261 259 262 262 252
227 232 235 237 241 245 249 255 259 261 259 258 256 255 258 260 261 264 271 274 277 283 289 294 298 299 300 300 300 295 291 286 282 281 281 284 283 282 281 279 275 270 269 269 265 260 258 257 262
231 235 238 242 244 248 254 261 262 262 259 254 258 259 260 261 264 268 271 275 282 288 293 298 299 299 303 305 301 294 284 282 281 282 287 290 289 287 284 280 276 274 271 270 270 266 259 258 254
234 239 243 244 248 252 259 263 265 264 263 259 259 260 262 264 267 269 273 279 285 291 297 297 299 305 308 301 291 285 286 284 283 280 287 291 291 291 288 285 278 272 269 268 270 271 266 260 255
237 242 244 247 251 255 261 267 269 265 261 261 262 263 264 267 269 271 273 280 288 293 297 300 308 308 301 291 284 284 287 283 281 283 286 287 289 291 292 288 285 277 269 268 266 265 267 263 259
241 244 246 249 251 256 261 264 269 268 260 261 264 265 264 267 270 271 276 285 292 296 301 309 311 305 301 293 285 287 289 290 286 285 282 283 287 288 288 287 283 280 277 272 271 269 260 261 259
242 245 247 249 253 256 259 263 265 267 265 259 262 266 267 269 271 274 282 289 294 301 310 318 316 312 305 301 296 294 292 288 286 286 287 287 286 285 283 280 279 279 277 276 274 274 265 254 255
243 245 247 251 254 259 264 265 262 266 266 263 261 263 268 270 272 277 283 288 296 309 320 323 320 313 306 301 297 294 293 292 290 288 285 283 283 284 284 280 276 276 276 277 277 276 272 261 252
243 246 249 252 257 262 264 266 260 262 264 262 263 266 268 271 273 277 283 289 307 318 322 320 315 310 306 301 300 295 296 294 293 292 289 287 283 282 283 284 281 276 276 277 277 275 273 270 262
245 247 251 254 258 261 261 267 259 256 259 259 260 265 269 270 273 276 282 292 309 314 316 317 318 317 308 305 305 304 302 300 299 297 294 290 287 285 285 284 284 281 278 276 275 273 269 266 265
246 247 251 253 255 258 262 262 259 256 258 259 258 262 267 270 272 275 281 295 305 311 315 315 318 313 312 311 308 306 305 305 303 300 295 293 291 288 287 286 284 281 281 279 277 275 273 270 266
245 247 250 253 255 262 260 258 263 258 261 262 260 262 266 268 270 276 280 290 300 309 313 315 317 316 313 311 310 308 307 306 306 300 298 295 292 291 293 289 288 289 285 281 281 280 276 275 271
243 244 249 256 259 261 257 258 259 257 258 261 261 263 267 268 271 277 283 290 300 304 307 312 317 315 311 311 311 309 309 309 305 301 301 299 293 294 292 293 296 293 290 287 284 286 281 275 271
242 245 252 255 256 258 257 256 256 255 258 261 262 261 264 266 268 278 283 289 301 306 310 313 316 315 314 314 310 309 308 308 304 304 307 303 298 294 299 301 299 296 292 287 283 282 276 272 271
243 243 245 249 254 255 259 257 256 254 259 259 259 261 265 269 268 277 282 290 299 304 310 314 318 317 316 314 311 308 308 306 306 306 308 304 304 303 298 306 305 295 294 288 283 281 279 276 273
246 246 244 245 248 253 260 256 255 257 257 262 262 257 265 267 271 276 280 291 298 305 312 318 318 319 317 314 313 310 312 309 309 310 311 317 310 307 308 308 305 299 295 292 290 289 284 279 276
236 237 235 237 244 253 257 255 259 259 263 264 264 261 261 264 272 275 283 291 298 307 319 321 321 320 317 317 314 316 315 314 315 314 318 319 316 315 313 310 309 303 303 304 299 297 290 285 283